[[{"header":{"parameterUnit":"m.s-1","parameterCategory":1,"la1":30.2991,"la2":30.254,"lo1":-89.0895,"lo2":-89.0444,"dy":0.0017,"dx":0.0017,"nx":28,"ny":28,"refTime":"2024-05-07T09:00:00:Z","depth":0,"parameterNumber":2,"parameterNumberName":"U-component_of_WINDS"},"data":[0,0,0,0,0,0,0,0,0,0,0,0,0,0,0,0,0,0,0,0,0,0,0,0,0,0,0,0,0,0,0,0,0,0,0,0,0,0,0,0,0,0,0,0,0,0,0,0,0,0,0,0,0,0,0,0,0,0,-1.7668,-1.7668,0,-1.7634,-1.7633,-1.7633,-1.7618,-1.7618,-1.7618,-1.7618,-1.7582,-1.7581,-1.758,0,0,0,0,0,0,0,0,0,0,0,0,0,-1.772,-1.772,-1.7668,-1.7668,-1.7667,-1.7634,-1.7633,-1.7633,-1.7618,-1.7618,-1.7618,-1.7618,-1.7583,-1.7581,-1.758,0,0,0,0,0,0,0,0,0,0,0,0,0,-1.7693,-1.7719,-1.7668,-1.7656,-1.7654,-1.7634,-1.7633,-1.7633,-1.7618,-1.7618,-1.7618,-1.7618,-1.7583,-1.7582,-1.758,-1.7569,0,0,-1.7575,-1.7575,0,0,0,0,0,0,0,0,-1.7695,-1.7691,-1.7658,-1.7657,-1.7655,-1.763,-1.7639,-1.7612,-1.7618,-1.7632,-1.7618,-1.7618,-1.7598,-1.7595,-1.7589,-1.7568,-1.7566,-1.7575,-1.7574,-1.7574,-1.7573,0,0,0,0,0,0,0,-1.7697,-1.7693,-1.7655,-1.7658,-1.7656,-1.7652,-1.7648,-1.7633,-1.7615,-1.7631,-1.7629,-1.7626,-1.7597,-1.759,-1.7588,-1.7566,-1.7575,-1.7574,-1.7573,-1.7573,-1.7534,-1.7534,0,0,0,0,0,0,-1.7701,-1.7694,-1.7656,-1.7654,-1.7675,-1.7651,-1.7647,-1.7638,-1.7615,-1.7612,-1.7626,-1.7625,-1.7593,-1.759,-1.7587,-1.7572,-1.7574,-1.7572,-1.7572,-1.7534,-1.7534,-1.7534,0,0,0,0,0,0,-1.7702,-1.7697,-1.7657,-1.7674,-1.7668,-1.765,-1.7641,-1.7637,-1.763,-1.7611,-1.7608,-1.7622,-1.7593,-1.7589,-1.7574,-1.7571,-1.7572,-1.757,-1.7534,-1.7534,-1.7534,-1.7544,0,0,0,0,0,0,-1.7703,-1.7698,-1.7694,-1.7674,-1.7667,-1.7645,-1.764,-1.7637,-1.7628,-1.7627,-1.7607,-1.7604,-1.7592,-1.7576,-1.7572,-1.7569,-1.7569,-1.7534,-1.7534,-1.7534,-1.7544,-1.7544,-1.7544,0,0,0,0,0,-1.7705,-1.7698,-1.7693,-1.7689,-1.7662,-1.7645,-1.7641,-1.7629,-1.7628,-1.7623,-1.7611,-1.7604,-1.7572,-1.7575,-1.757,-1.7566,-1.7534,-1.7534,-1.7534,-1.7543,-1.7544,-1.7544,0,0,0,0,0,0,-1.7718,-1.7695,-1.769,-1.7676,-1.7662,-1.7642,-1.7636,-1.763,-1.7616,-1.7616,-1.7601,-1.7596,-1.7583,-1.7573,-1.7577,-1.7555,-1.7552,-1.7551,-1.7561,-1.7562,-1.7562,-1.7564,-1.7568,0,0,0,0,0,-1.7719,-1.7707,-1.7688,-1.7677,-1.7671,-1.7655,-1.7647,-1.7639,-1.7624,-1.7618,-1.7605,-1.7591,-1.7578,-1.7569,-1.7556,-1.7542,-1.7538,-1.7537,-1.7538,-1.7538,-1.7537,-1.7529,-1.7529,-1.7533,-1.7533,-1.7533,0,0,-1.7721,-1.7707,-1.7701,-1.7679,-1.7668,-1.7656,-1.765,-1.7638,-1.7629,-1.7616,-1.7601,-1.7591,-1.7575,-1.756,-1.7553,-1.7552,-1.7535,-1.7538,-1.7538,-1.7537,-1.7529,-1.7528,-1.7528,-1.7532,-1.7532,-1.7532,0,0,-1.7719,-1.7707,-1.7697,-1.7686,-1.7669,-1.7658,-1.7656,-1.7637,-1.763,-1.7615,-1.7605,-1.7594,-1.7571,-1.756,-1.7551,-1.7545,-1.7538,-1.7541,-1.7542,-1.7535,-1.7535,-1.7534,-1.7532,-1.7531,-1.754,-1.754,-1.754,0,-1.7723,-1.7705,-1.7693,-1.7681,-1.7672,-1.766,-1.765,-1.7639,-1.7619,-1.7613,-1.7611,-1.7583,-1.7571,-1.7554,-1.7552,-1.7545,-1.7542,-1.7543,-1.7536,-1.7535,-1.7535,-1.7532,-1.7531,-1.7541,-1.7541,-1.754,-1.754,0,-1.7712,-1.77,-1.7693,-1.7674,-1.7664,-1.7653,-1.7639,-1.763,-1.7623,-1.7612,-1.7597,-1.7582,-1.7566,-1.7561,-1.7554,-1.7543,-1.7543,-1.7539,-1.7536,-1.7535,-1.7532,-1.7531,-1.7541,-1.7541,-1.7541,-1.7541,0,0,-1.7716,-1.769,-1.7688,-1.7679,-1.766,-1.765,-1.7638,-1.7622,-1.7615,-1.7602,-1.7591,-1.7573,-1.7569,-1.7559,-1.755,-1.7544,-1.7539,-1.754,-1.754,-1.7541,-1.7527,-1.753,-1.7529,-1.7535,-1.7535,-1.7535,-1.7528,0,-1.7711,-1.769,-1.7678,-1.7662,-1.765,-1.7639,-1.7629,-1.7616,-1.7606,-1.7595,-1.7583,-1.757,-1.7567,-1.7561,-1.7554,-1.7541,-1.7536,-1.7542,-1.7525,-1.7525,-1.7529,-1.7527,-1.753,-1.7525,-1.7527,-1.7527,-1.7527,0,-1.7703,-1.7689,-1.7672,-1.7654,-1.7648,-1.7639,-1.7624,-1.7613,-1.7598,-1.7591,-1.758,-1.7571,-1.7559,-1.7558,-1.754,-1.7544,-1.7536,-1.7529,-1.7529,-1.7526,-1.7525,-1.7525,-1.7523,-1.7522,-1.7525,-1.7525,-1.7525,0,-1.7708,-1.7685,-1.7672,-1.7664,-1.7643,-1.7637,-1.7628,-1.7613,-1.7604,-1.759,-1.7584,-1.7569,-1.7561,-1.755,-1.7537,-1.7538,-1.7521,-1.7518,-1.7515,-1.7515,-1.7511,-1.7512,-1.7508,-1.7507,-1.7507,-1.7507,-1.7507,0,-1.7703,-1.7693,-1.7674,-1.7665,-1.7654,-1.764,-1.7629,-1.7618,-1.7605,-1.7595,-1.7584,-1.7575,-1.7559,-1.7547,-1.7537,-1.7524,-1.7521,-1.7515,-1.7512,-1.7515,-1.7516,-1.751,-1.751,-1.7507,-1.7507,-1.7507,-1.7507,0,-1.7706,-1.7693,-1.7678,-1.7659,-1.7654,-1.7646,-1.7629,-1.7621,-1.761,-1.7597,-1.7593,-1.7577,-1.7563,-1.7549,-1.753,-1.7524,-1.751,-1.7507,-1.7516,-1.7514,-1.7511,-1.7511,-1.7503,-1.7501,-1.7502,-1.7502,-1.7502,0,-1.7704,-1.7696,-1.7676,-1.7668,-1.7659,-1.7647,-1.7638,-1.7624,-1.7616,-1.7598,-1.7591,-1.7577,-1.7564,-1.7542,-1.7528,-1.7514,-1.751,-1.7508,-1.7507,-1.7511,-1.751,-1.751,-1.7509,-1.7508,-1.7508,-1.7508,-1.7508,0,-1.7702,-1.7696,-1.7683,-1.7668,-1.7658,-1.7645,-1.7633,-1.7627,-1.7611,-1.7601,-1.7587,-1.7577,-1.7558,-1.7543,-1.7527,-1.7517,-1.751,-1.7509,-1.7507,-1.751,-1.7515,-1.7512,-1.7516,-1.7509,-1.7509,-1.7509,-1.7509,-1.7509,-1.7702,-1.7694,-1.7679,-1.7665,-1.7654,-1.7643,-1.7634,-1.7622,-1.761,-1.7593,-1.7586,-1.7571,-1.7557,-1.7534,-1.7525,-1.7513,-1.7511,-1.7509,-1.7508,-1.7508,-1.7508,-1.7517,-1.751,-1.751,-1.751,-1.751,-1.751,0,-1.7699,-1.7689,-1.7676,-1.7659,-1.7648,-1.7642,-1.7628,-1.7619,-1.7607,-1.7593,-1.7581,-1.7564,-1.755,-1.7536,-1.7521,-1.7514,-1.751,-1.751,-1.7511,-1.7509,-1.7511,-1.7514,-1.7514,-1.7514,-1.7514,-1.7514,-1.7514,-1.7514,-1.7696,-1.7683,-1.7675,-1.7656,-1.7645,-1.7631,-1.7623,-1.7612,-1.7602,-1.7584,-1.7572,-1.7562,-1.7548,-1.7532,-1.7519,-1.7515,-1.751,-1.7511,-1.7506,-1.7509,-1.7508,-1.7508,-1.7511,-1.751,-1.751,-1.7505,-1.7505,-1.7505]},{"header":{"parameterUnit":"m.s-1","parameterCategory":1,"la1":30.2991,"la2":30.254,"lo1":-89.0895,"lo2":-89.0444,"dy":0.0017,"dx":0.0017,"nx":28,"ny":28,"refTime":"2024-05-07T09:00:00:Z","depth":0,"parameterNumber":3,"parameterNumberName":"V-component_of_WINDS"},"data":[0,0,0,0,0,0,0,0,0,0,0,0,0,0,0,0,0,0,0,0,0,0,0,0,0,0,0,0,0,0,0,0,0,0,0,0,0,0,0,0,0,0,0,0,0,0,0,0,0,0,0,0,0,0,0,0,0,0,6.9607,6.9608,0,6.9686,6.9687,6.9688,6.9654,6.9652,6.965,6.9648,6.9722,6.9725,6.9729,0,0,0,0,0,0,0,0,0,0,0,0,0,6.9418,6.9422,6.9607,6.9608,6.9609,6.9686,6.9687,6.9688,6.9654,6.9652,6.9649,6.9647,6.972,6.9725,6.9729,0,0,0,0,0,0,0,0,0,0,0,0,0,6.9499,6.9423,6.9607,6.9601,6.9602,6.9686,6.9687,6.9688,6.9654,6.9652,6.9649,6.9646,6.9719,6.9724,6.973,6.9822,0,0,6.9747,6.975,0,0,0,0,0,0,0,0,6.9494,6.9506,6.9601,6.9602,6.9602,6.9657,6.9648,6.9733,6.9655,6.9634,6.9648,6.9645,6.9702,6.9709,6.973,6.9825,6.9829,6.9748,6.9751,6.9753,6.9755,0,0,0,0,0,0,0,6.9489,6.9502,6.9638,6.9602,6.9603,6.9592,6.9601,6.9664,6.9683,6.9636,6.9633,6.9644,6.9702,6.9724,6.9731,6.983,6.9747,6.9752,6.9756,6.9758,7.0005,7.0008,0,0,0,0,0,0,6.9484,6.9498,6.9635,6.964,6.954,6.9598,6.9607,6.9642,6.9682,6.9686,6.9646,6.9642,6.9716,6.9725,6.9734,6.9844,6.9753,6.9759,6.9762,7.0002,7.0005,7.0009,0,0,0,0,0,0,6.948,6.9497,6.9632,6.9569,6.9585,6.9605,6.9644,6.9645,6.9668,6.969,6.9693,6.9666,6.9714,6.9726,6.9801,6.9846,6.9761,6.9766,6.9998,7.0003,7.0007,7.0066,0,0,0,0,0,0,6.9475,6.9496,6.9533,6.957,6.9589,6.97,6.9647,6.9649,6.9679,6.9674,6.971,6.9713,6.9713,6.9793,6.9806,6.9853,6.9771,6.9994,7.0,7.0006,7.006,7.0072,7.0083,0,0,0,0,0,6.9469,6.9544,6.9535,6.9551,6.9635,6.9703,6.9713,6.9714,6.9683,6.9719,6.9733,6.9712,6.9839,6.9801,6.9816,6.9864,6.9991,6.9998,7.0005,7.0055,7.007,7.0083,0,0,0,0,0,0,6.9508,6.9549,6.9539,6.9629,6.9663,6.9697,6.9743,6.973,6.9772,6.9765,6.9762,6.977,6.9848,6.9863,6.982,6.9956,6.991,6.992,6.9943,6.9957,6.9968,6.9962,6.9775,0,0,0,0,0,6.9528,6.9583,6.9614,6.969,6.9708,6.9723,6.9752,6.975,6.9784,6.9798,6.9817,6.9849,6.9897,6.9928,6.9972,7.0062,7.0069,7.0103,7.0114,7.0124,7.0133,7.0181,7.0197,7.0032,7.0032,7.0032,0,0,6.9569,6.9598,6.9631,6.9699,6.9725,6.9779,6.9735,6.9793,6.9833,6.9806,6.9879,6.9894,6.9929,7.0013,7.005,7.0028,7.018,7.0133,7.014,7.0144,7.019,7.0206,7.022,7.0037,7.0036,7.0036,0,0,6.967,6.9698,6.9765,6.9793,6.9835,6.9844,6.986,6.9897,6.9907,6.9981,6.9962,7.0007,7.0089,7.0115,7.0139,7.0252,7.0234,7.0267,7.0325,7.0373,7.0386,7.0397,7.0438,7.0452,7.0276,7.0276,7.0276,0,6.9714,6.9798,6.98,6.9862,6.9892,6.9873,6.994,6.9966,7.0019,7.0039,7.0014,7.0117,7.0139,7.0228,7.0256,7.0276,7.0294,7.0262,7.0384,7.0396,7.0406,7.0445,7.046,7.0279,7.0279,7.0279,7.0278,0,6.985,6.9908,6.9957,7.0012,7.0047,7.0111,7.0122,7.0157,7.0152,7.0163,7.0238,7.0265,7.0315,7.0336,7.033,7.0425,7.041,7.0385,7.0339,7.0426,7.0462,7.0476,7.0285,7.0283,7.0282,7.0281,0,0,6.9978,7.0035,7.0053,7.0078,7.0123,7.0167,7.0229,7.0281,7.0311,7.0348,7.0399,7.047,7.0448,7.0475,7.0472,7.0514,7.0602,7.0484,7.0485,7.0505,7.0707,7.0726,7.0743,7.0591,7.0594,7.0596,7.0704,0,7.0082,7.0195,7.02,7.0302,7.0355,7.0338,7.0392,7.0424,7.0437,7.0482,7.0494,7.0545,7.0512,7.0528,7.0569,7.0583,7.0643,7.0575,7.0637,7.0639,7.0628,7.0761,7.0781,7.0882,7.0718,7.0721,7.0722,0,7.022,7.0265,7.0373,7.0412,7.0434,7.0483,7.0531,7.0575,7.0611,7.0617,7.0649,7.064,7.0702,7.0655,7.0739,7.0693,7.0719,7.0729,7.0733,7.0738,7.0686,7.077,7.0914,7.0929,7.0744,7.0743,7.0741,0,7.0302,7.0389,7.0466,7.0487,7.0534,7.0569,7.059,7.0623,7.0654,7.0695,7.0715,7.0762,7.0788,7.0823,7.0827,7.0793,7.0912,7.0865,7.0918,7.0918,7.0943,7.0941,7.1093,7.096,7.096,7.0959,7.0959,0,7.0419,7.0485,7.0504,7.055,7.0624,7.0628,7.07,7.0717,7.0748,7.0796,7.0783,7.0828,7.0831,7.0876,7.088,7.0949,7.096,7.0966,7.0966,7.0967,7.0966,7.0983,7.0976,7.0963,7.0963,7.0962,7.0961,0,7.0523,7.0538,7.062,7.0659,7.067,7.0723,7.0754,7.0798,7.081,7.0871,7.0886,7.0903,7.0957,7.0965,7.1026,7.1028,7.1111,7.1104,7.11,7.1099,7.1151,7.1146,7.1318,7.1341,7.1194,7.1195,7.1196,0,7.0596,7.0647,7.0693,7.0726,7.0749,7.0802,7.0835,7.084,7.0874,7.092,7.0958,7.1011,7.1053,7.1138,7.1155,7.1202,7.1196,7.1253,7.1202,7.1202,7.1196,7.1193,7.1198,7.1262,7.1264,7.1265,7.1266,0,7.0724,7.073,7.0779,7.0832,7.0872,7.0912,7.095,7.0977,7.0988,7.1026,7.1082,7.1116,7.118,7.1232,7.1279,7.1297,7.1283,7.1282,7.1297,7.1298,7.1294,7.1297,7.1127,7.1278,7.1277,7.1276,7.1275,7.1275,7.0815,7.0861,7.09,7.0955,7.0986,7.1022,7.1066,7.1084,7.1132,7.1187,7.1186,7.1248,7.1282,7.1344,7.1366,7.1413,7.1394,7.1415,7.142,7.1425,7.143,7.1288,7.1421,7.1421,7.142,7.142,7.142,0,7.0943,7.0968,7.1019,7.1075,7.1118,7.1105,7.1146,7.1183,7.1238,7.1272,7.1315,7.138,7.143,7.1452,7.1501,7.1534,7.1529,7.1547,7.1544,7.1549,7.1444,7.1427,7.155,7.155,7.155,7.155,7.155,7.155,7.1015,7.1091,7.1101,7.1192,7.1215,7.1278,7.1303,7.1336,7.1364,7.1437,7.148,7.1495,7.1524,7.1576,7.1621,7.1626,7.1645,7.1666,7.1667,7.1569,7.1556,7.1543,7.1527,7.167,7.167,7.1768,7.1769,7.177]}]]